Terminal Aerodrome Forecast
Issued by NWS Blacksburg, VA

Home | Current Version | Previous Version | Text Only | Print | Product List | Glossary On
Versions: 1 2 3 4 5 6 7 8 9 10 11 12 13 14 15 16 17 18 19 20 21 22 23 24 25 26 27 28 29 30 31
000
FTUS41 KRNK 291133
TAFDAN
TAF
KDAN 291133Z 2912/3012 04007KT P6SM OVC035
     FM291900 07005KT P6SM SCT050
     FM300000 07003KT P6SM BKN150
     FM300800 VRB03KT 2SM BR OVC012
      AMD NOT SKED=

USA.gov is the U.S. government's official web portal to all federal, state and local government web resources and services.